FREGAT DEB, 45635

Orbit data source: Space-Track

FREGAT DEB, 45635 is space debris in LEO originally from a launch on Mon, 18 Jul 2011 UTC launched from the Tyuratam Missile And Space Complex (TTMTR). Debris objects in space refer to the collection of defunct objects orbiting the Earth. Examples of debris include non-operational satellites, rocket bodies, and fragments generated from explosions, collisions, or faulty payload assembly.

Loading next visibility...
FREGAT DEB details
Identifier
45635, 2011-037AB
Orbit
LEO
Last TLE update7 hours ago
Origin
Flag of CISVVKO VKS (CIS)
ManufacturerLavochkin
MissionSpacecraft
Bus & MotorUnknown
MassUnknown
Launch date (UTC)
2011-07-18 (13 years ago)
Launch vehicleUnknown
Launch site
Tyuratam Missile And Space Complex (TTMTR)
Object type
Payload
Rocket body
Debris
Shape & HBRUnknown
Radar Cross SectionSmall (<0.1 m²)

Expand to show TLE details & history

TLE from 7 hours ago
0 FREGAT DEB
1 45635U 11037AB  24361.12472208  .00109631  00000-0  23550-1 0  9993
2 45635  51.3267  45.9822 1286005  41.8907 327.3460 12.49470552190419
Epoch: 2024-12-26T02:59Z
Definitive object data (Epoch: 2024-12-26T02:59:35.987Z)
Latitude0.00001°
Longitude-94.02635°
Altitude662.628 km
Speed7.903 km/s
True Right ascension03h 03m 55s
True Declination0° 00' 00"
Sunlit
Object was in full shadow at TLE epoch
Visualization TLE readout
Latitude-44.82787°
Longitude137.44546°
Altitude2,398.858 km
Speed6.333 km/s
Apparent Right ascension19h 45m 40s
Apparent Declination-44° 40' 12"
Sunlit
Object is in daylight
Visualization observer readout
Local Sidereal Time09:23:22
Azimuth112.817° SE
Elevation-71.396°
Doppler factor1
Orbital elements
Apogee altitude2,476.124 km
Perigee altitude458.293 km
Semi-major axis7,845.345 km
Eccentricity0.1286005
Inclination51.3267°
RAAN45.9822°
Arg. of periapsis41.8907°
True anomaly318.19892°
Mean anomaly327.346°
Eccentric anomaly322.90156°
Mean motion3.12338 °/min
BSTAR0.02355
Orbital period115.26 mins
Loading maneuver chart data...
Loading historical data...
Loading historical data...
Loading historical data...
Loading historical data...
Loading historical data...
Loading historical data...
Loading historical data...

FREGAT DEB Visibility forecast

Observer location: undefined°, undefined

Span
Click to sort rows by Start time (UTC) header in descending order
Start Az.
Max El. time (UTC)
Max El. Az.
Max El.
End time (UTC)
End Az.
11 mins2024-12-26 11:03:15.422Z317.032° NNW2024-12-26 11:08:15.422Z32.015° NE30.968°2024-12-26 11:14:15.422Z88.218° E
14 mins2024-12-26 13:04:15.422Z301.414° NW2024-12-26 13:09:15.422Z187.101° SSW43.879°2024-12-26 13:18:15.422Z136.513° SSE
12 mins2024-12-26 15:05:15.422Z267.187° W2024-12-26 15:09:15.422Z233.611° WSW20.952°2024-12-26 15:17:15.422Z186.279° SSW
5 mins2024-12-27 06:04:15.422Z223.153° SW2024-12-27 06:05:15.422Z206.509° SW41.718°2024-12-27 06:09:15.422Z55.587° ENE
4 mins2024-12-27 08:05:15.422Z326.152° NNW2024-12-27 08:06:15.422Z348.737° N20.899°2024-12-27 08:09:15.422Z36.587° NE
|